{"data":{"norad_id":58204,"epoch":"2026-05-24T17:07:21.902016Z","epoch_age_seconds":110218,"freshness":"FRESH","line1":"1 58204U 23169A   26144.71344794 -.00000253  00000+0  00000+0 0  9995","line2":"2 58204   2.4864  80.7584 0003439 102.0770  48.7777  1.00272607  9300","mean_motion":1.00272607,"eccentricity":0.0003439,"inclination_deg":2.4864,"raan_deg":80.7584,"arg_perigee_deg":102.077,"mean_anomaly_deg":48.7777,"bstar":0,"rev_number":930,"period_min":1436.0851314058,"perigee_km":35771.86415425,"apogee_km":35800.8648984,"semimajor_km":42164.501526325,"source":"CELESTRAK","updated_at":"2026-05-25T13:38:14.143114Z"}}